FW3054 Weather Reports


Display with metric or nautical units.
time (UTC)temp
F
wind
direction
speed
MPH
gust
MPH
rain 1hr
in
rain 24hr
in
rain mn
in
humidity
%
barometer
mb
20260510192521 80 0 2.0 6.0 0.00 0.00 0.00 32 1017.8
20260510191520 79 45 1.0 3.0 0.00 0.00 0.00 34 1017.9
20260510190521 79 23 1.0 4.0 0.00 0.00 0.00 34 1017.9
20260510185521 79 23 2.0 5.0 0.00 0.00 0.00 34 1017.7
20260510184521 79 23 3.0 6.0 0.00 0.00 0.00 34 1017.9
20260510183521 79 0 2.0 5.0 0.00 0.00 0.00 33 1018.0
20260510182521 79 23 2.0 5.0 0.00 0.00 0.00 35 1018.0
20260510181520 78 23 2.0 5.0 0.00 0.00 0.00 35 1018.0
20260510180520 79 23 2.0 5.0 0.00 0.00 0.00 34 1018.3
20260510175520 79 45 1.0 3.0 0.00 0.00 0.00 35 1018.5
20260510174520 80 23 1.0 3.0 0.00 0.00 0.00 36 1018.6
20260510173520 80 0.0 2.0 0.00 0.00 0.00 35 1018.6
20260510172520 78 23 1.0 2.0 0.00 0.00 0.00 36 1018.5
20260510171545 78 0 1.0 4.0 0.00 0.00 0.00 36 1018.8
20260510170520 78 0 1.0 4.0 0.00 0.00 0.00 35 1018.8
20260510165520 78 0.0 2.0 0.00 0.00 0.00 37 1018.8
20260510164520 78 0 1.0 3.0 0.00 0.00 0.00 37 1019.0
20260510163520 77 0.0 2.0 0.00 0.00 0.00 38 1019.0
20260510162545 77 0.0 2.0 0.00 0.00 0.00 37 1019.1
20260510161520 75 23 1.0 3.0 0.00 0.00 0.00 38 1019.0
20260510160545 75 23 1.0 4.0 0.00 0.00 0.00 39 1019.2
20260510155520 73 23 1.0 4.0 0.00 0.00 0.00 43 1019.1
20260510154520 72 0 1.0 3.0 0.00 0.00 0.00 44 1019.1
20260510153520 71 0 1.0 2.0 0.00 0.00 0.00 47 1019.3
20260510152520 70 23 2.0 4.0 0.00 0.00 0.00 46 1019.0
20260510151520 69 0 1.0 3.0 0.00 0.00 0.00 50 1019.0
20260510150522 69 0 2.0 7.0 0.00 0.00 0.00 53 1019.1
20260510145522 68 0.0 2.0 0.00 0.00 0.00 58 1019.3
20260510144522 67 0.0 2.0 0.00 0.00 0.00 68 1019.3
20260510143522 66 0.0 0.0 0.00 0.00 0.00 73 1019.3
20260510142520 65 0.0 0.0 0.00 0.00 0.00 76 1019.2
20260510141547 63 0.0 0.0 0.00 0.00 0.00 79 1019.0
20260510140522 62 0.0 2.0 0.00 0.00 0.00 80 1019.0
20260510135522 61 0 1.0 2.0 0.00 0.00 0.00 82 1019.0
20260510134522 60 0.0 0.0 0.00 0.00 0.00 84 1018.9
20260510133522 59 0.0 0.0 0.00 0.00 0.00 85 1018.9
20260510132522 58 0.0 2.0 0.00 0.00 0.00 86 1018.8
20260510131522 57 0.0 0.0 0.00 0.00 0.00 87 1018.7
20260510130522 56 0.0 0.0 0.00 0.00 0.00 87 1018.7
20260510125522 56 0.0 0.0 0.00 0.00 0.00 87 1018.6
20260510124522 55 0.0 0.0 0.00 0.00 0.00 88 1018.5
20260510123522 55 0.0 1.0 0.00 0.00 0.00 88 1018.5
20260510122522 54 0.0 1.0 0.00 0.00 0.00 89 1018.4
20260510121522 53 0.0 0.0 0.00 0.00 0.00 89 1018.3
20260510120522 53 0.0 1.0 0.00 0.00 0.00 90 1018.3
20260510115522 52 0.0 1.0 0.00 0.00 0.00 90 1018.1
20260510114522 52 0.0 0.0 0.00 0.00 0.00 90 1017.9
20260510113522 51 0.0 0.0 0.00 0.00 0.00 89 1017.7
20260510112547 51 0.0 0.0 0.00 0.00 0.00 89 1017.4
20260510111522 51 0.0 0.0 0.00 0.00 0.00 89 1017.4
20260510110522 50 0.0 0.0 0.00 0.00 0.00 90 1017.0
20260510105522 50 0.0 0.0 0.00 0.00 0.00 90 1016.9
20260510104522 50 0.0 0.0 0.00 0.00 0.00 90 1016.9
20260510103522 51 0.0 0.0 0.00 0.00 0.00 90 1016.6
20260510102522 50 0.0 0.0 0.00 0.00 0.00 90 1016.4
20260510101522 50 0.0 0.0 0.00 0.00 0.00 90 1016.6
20260510100522 50 0.0 0.0 0.00 0.00 0.00 90 1016.4
20260510095521 50 0.0 0.0 0.00 0.00 0.00 90 1016.3
20260510094522 50 0.0 0.0 0.00 0.00 0.00 90 1016.4
20260510093522 50 0.0 0.0 0.00 0.00 0.00 90 1016.2
20260510092522 51 0.0 0.0 0.00 0.00 0.00 90 1016.1
20260510091522 51 0.0 0.0 0.00 0.00 0.00 90 1016.0
20260510090521 51 0.0 0.0 0.00 0.00 0.00 90 1016.0
20260510085547 51 0.0 0.0 0.00 0.00 0.00 89 1015.9
20260510084612 51 0.0 0.0 0.00 0.00 0.00 89 1015.8
20260510083522 51 0.0 0.0 0.00 0.00 0.00 89 1015.7
20260510082547 51 0.0 0.0 0.00 0.00 0.00 89 1015.6
20260510081522 51 0.0 0.0 0.00 0.00 0.00 89 1015.8
20260510080521 52 0.0 0.0 0.00 0.00 0.00 89 1015.5
20260510075522 52 0.0 0.0 0.00 0.00 0.00 88 1015.4
20260510074522 52 0.0 0.0 0.00 0.00 0.00 88 1015.4
20260510073522 53 0.0 0.0 0.00 0.00 0.00 88 1015.5
20260510072521 53 0.0 0.0 0.00 0.00 0.00 87 1015.3
20260510071521 53 0.0 0.0 0.00 0.00 0.00 87 1015.4
20260510070546 54 0.0 0.0 0.00 0.00 0.00 87 1015.4
20260510065521 54 0.0 0.0 0.00 0.00 0.00 87 1015.4
20260510064547 54 0.0 0.0 0.00 0.00 0.00 87 1015.7
20260510063521 54 0.0 0.0 0.00 0.00 0.00 87 1015.5
20260510062522 54 0.0 0.0 0.00 0.00 0.00 87 1015.4
20260510061522 54 0.0 0.0 0.00 0.00 0.00 86 1015.9
20260510060521 54 0.0 0.0 0.00 0.00 0.00 85 1016.0
20260510055521 55 0.0 0.0 0.00 0.00 0.00 85 1016.2
20260510054546 55 0.0 0.0 0.00 0.00 0.00 85 1015.8
20260510053521 55 0.0 0.0 0.00 0.00 0.00 85 1015.8
20260510052521 55 0.0 0.0 0.00 0.00 0.00 84 1015.9
20260510051521 56 0.0 0.0 0.00 0.00 0.00 84 1015.9
20260510050521 56 0.0 0.0 0.00 0.00 0.00 84 1015.8
20260510045521 56 0.0 0.0 0.00 0.00 0.00 83 1015.6
20260510044521 57 0.0 0.0 0.00 0.00 0.00 83 1015.6
20260510043521 57 0.0 0.0 0.00 0.00 0.00 82 1015.4
20260510042521 57 0.0 0.0 0.00 0.00 0.00 81 1015.5
20260510041612 58 0.0 0.0 0.00 0.00 0.00 81 1015.4
20260510040521 58 0.0 1.0 0.00 0.00 0.00 80 1015.3
20260510035521 58 0.0 0.0 0.00 0.00 0.00 79 1015.1
20260510034521 58 0.0 0.0 0.00 0.00 0.00 79 1014.9
20260510033521 59 0.0 0.0 0.00 0.00 0.00 78 1015.2
20260510032521 59 0.0 0.0 0.00 0.00 0.00 78 1015.3
20260510031521 59 0.0 0.0 0.00 0.00 0.00 78 1014.9
20260510030521 59 0.0 0.0 0.00 0.00 0.00 77 1015.0
20260510025521 60 0.0 0.0 0.00 0.00 0.00 76 1015.2
20260510024521 60 0.0 0.0 0.00 0.00 0.00 75 1014.8
20260510023521 61 0.0 0.0 0.00 0.00 0.00 74 1014.9
20260510022521 61 0.0 0.0 0.00 0.00 0.00 73 1014.9
20260510021611 61 0.0 0.0 0.00 0.00 0.00 73 1014.4
20260510020521 61 0.0 0.0 0.00 0.00 0.00 72 1014.3
20260510015521 62 0.0 0.0 0.00 0.00 0.00 71 1014.1
20260510014521 62 0.0 0.0 0.00 0.00 0.00 70 1013.7
20260510013521 62 0.0 0.0 0.00 0.00 0.00 69 1013.5
20260510012521 62 0.0 0.0 0.00 0.00 0.00 69 1013.3
20260510011546 63 0.0 0.0 0.00 0.00 0.00 68 1013.0
20260510010546 63 0.0 0.0 0.00 0.00 0.00 68 1012.9
20260510005521 64 0.0 1.0 0.00 0.00 0.00 67 1012.9
20260510004521 64 0.0 1.0 0.00 0.00 0.00 66 1012.8
20260510003521 65 0.0 1.0 0.00 0.00 0.00 64 1012.7
20260510002546 65 0.0 1.0 0.00 0.00 0.00 64 1012.7
20260510001521 66 0.0 0.0 0.00 0.00 0.00 63 1012.1
20260510000546 67 0.0 0.0 0.00 0.00 0.00 62 1012.1
20260509235521 67 0.0 3.0 0.00 0.00 0.00 59 1011.8
20260509234521 68 0.0 0.0 0.00 0.00 0.00 59 1011.8
20260509233521 68 0.0 0.0 0.00 0.00 0.00 58 1011.6
20260509232521 69 0.0 0.0 0.00 0.00 0.00 61 1011.7
20260509231521 69 0.0 1.0 0.00 0.00 0.00 58 1011.3
20260509230521 69 0.0 1.0 0.00 0.00 0.00 58 1011.3
20260509225521 69 0.0 2.0 0.00 0.00 0.00 59 1011.3
20260509224521 70 23 1.0 4.0 0.00 0.00 0.00 57 1011.4
20260509223521 70 0.0 3.0 0.00 0.00 0.00 58 1011.5
20260509222546 71 0.0 2.0 0.00 0.00 0.00 58 1011.4
20260509221521 71 0.0 2.0 0.00 0.00 0.00 57 1011.4
20260509220521 71 23 2.0 5.0 0.00 0.00 0.00 56 1011.4
20260509215520 72 0 1.0 4.0 0.00 0.00 0.00 55 1011.1
20260509214521 73 0.0 1.0 0.00 0.00 0.00 54 1010.9
20260509213521 73 0 1.0 3.0 0.00 0.00 0.00 52 1010.7
20260509212521 74 23 1.0 3.0 0.00 0.00 0.00 52 1010.6
20260509211521 74 0.0 1.0 0.00 0.00 0.00 54 1010.7
20260509210546 74 23 2.0 6.0 0.00 0.00 0.00 52 1010.7
20260509205521 74 0.0 3.0 0.00 0.00 0.00 53 1010.8
20260509204521 74 23 1.0 2.0 0.00 0.00 0.00 54 1010.8
20260509203520 74 23 1.0 3.0 0.00 0.00 0.00 53 1010.8
20260509202521 74 23 1.0 2.0 0.00 0.00 0.00 53 1010.7
20260509201521 75 23 1.0 5.0 0.00 0.00 0.00 51 1010.9
20260509200521 75 23 1.0 4.0 0.00 0.00 0.00 51 1010.8
20260509195546 75 0 1.0 2.0 0.00 0.00 0.00 52 1010.7
20260509194521 75 23 1.0 4.0 0.00 0.00 0.00 53 1010.8
20260509193520 75 23 1.0 4.0 0.00 0.00 0.00 50 1011.0